Portsmouth, NH

7:14 AM EST on February 11, 2016 (GMT -0500)
Pease International Tradeport

Weather History for KPSM - October, 2013

Change the Weather History Date:

Monday, October 7, 2013

  Actual Average Record
Temperature  
Mean Temperature 64 °F -  
Max Temperature 71 °F 61 °F 85 °F (1990)
Min Temperature 56 °F 42 °F 20 °F (1984)
Degree Days  
Heating Degree Days 2    
Growing Degree Days 14 (Base 50)    
Moisture  
Dew Point 63 °F    
Average Humidity 96    
Maximum Humidity 100    
Minimum Humidity 82    
Precipitation  
Precipitation 0.11 in - - ()
Sea Level Pressure  
Sea Level Pressure 29.95 in    
Wind  
Wind Speed 7 mph (SE)    
Max Wind Speed 21 mph    
Max Gust Speed 33 mph    
Visibility 5 miles    
Events Fog , Rain    
Averages and records for this station are not official NWS values.
T = Trace of Precipitation, MM = Missing Value Source: NWS Daily Summary

Daily Weather History Graph

Daily Weather History Graph

Search for Another Location

Airport or City:

Trip Planner

Search our weather history database for the weather conditions in past years. The results will help you decide how hot, cold, wet, or windy it might be!

Date:

Astronomy

Oct. 07, 2013 Rise Set
Actual Time 6:47 AM EDT 6:13 PM EDT
Civil Twilight 6:19 AM EDT 6:41 PM EDT
Nautical Twilight 5:46 AM EDT 7:14 PM EDT
Astronomical Twilight 5:13 AM EDT 7:47 PM EDT
Moon 9:39 AM EDT (10/7) 7:50 PM EDT (10/7)
Length of Visible Light 12h 22m
Length of Day
11h 25m
Waxing Crescent, 8% of the Moon is Illuminated
Oct 7
Waxing Crescent
Oct 11
First Quarter
Oct 18
Full
Oct 26
Last Quarter
Nov 3
New

Hourly Weather History & Observations

Time (EDT) Temp. Dew Point Humidity Pressure Visibility Wind Dir Wind Speed Gust Speed Precip Events Conditions
12:58 AM 56.3 °F 56.1 °F 99% 30.15 in 4.0 mi East 5.8 mph - 0.02 in   Overcast
1:58 AM 57.2 °F 56.8 °F 99% 30.13 in 10.0 mi East 8.1 mph - 0.01 in   Overcast
2:58 AM 57.6 °F 57.4 °F 99% 30.10 in 6.0 mi ENE 6.9 mph - N/A   Overcast
3:58 AM 58.1 °F 57.7 °F 99% 30.08 in 4.0 mi Variable 4.6 mph - N/A   Overcast
4:58 AM 58.8 °F 58.5 °F 99% 30.07 in 6.0 mi ENE 4.6 mph - 0.01 in   Overcast
5:28 AM 59.0 °F 59.0 °F 100% 30.05 in 9.0 mi ENE 3.5 mph - N/A   Overcast
5:33 AM 59.0 °F 59.0 °F 100% 30.06 in 9.0 mi East 2.3 mph - N/A   Overcast
5:38 AM 59.0 °F 59.0 °F 100% 30.06 in 9.0 mi NE 2.3 mph - N/A   Overcast
5:53 AM 59.0 °F 59.0 °F 100% 30.05 in 7.0 mi East 2.3 mph - N/A   Overcast
5:58 AM 59.0 °F 58.6 °F 99% 30.06 in 5.0 mi East 3.5 mph - N/A   Overcast
6:33 AM 59.0 °F 59.0 °F 100% 30.05 in 2.5 mi NNW 2.3 mph - N/A   Overcast
6:38 AM 59.0 °F 59.0 °F 100% 30.05 in 1.8 mi North 2.3 mph - N/A   Overcast
6:43 AM 59.0 °F 59.0 °F 100% 30.05 in 1.5 mi North 2.3 mph - N/A   Overcast
6:48 AM 59.0 °F 59.0 °F 100% 30.05 in 1.0 mi North 2.3 mph - N/A   Mist
6:53 AM 59.0 °F 59.0 °F 100% 30.05 in 0.8 mi NE 2.3 mph - N/A   Mist
6:58 AM 59.5 °F 59.2 °F 99% 30.05 in 0.8 mi NE 3.5 mph - N/A   Mist
7:03 AM 59.0 °F 59.0 °F 100% 30.04 in 0.8 mi NE 3.5 mph - N/A   Mist
7:18 AM 59.0 °F 59.0 °F 100% 30.05 in 0.8 mi Calm Calm - N/A   Mist
7:38 AM 59.0 °F 59.0 °F 100% 30.04 in 0.5 mi NE 2.3 mph - N/A Fog Fog
7:43 AM 59.0 °F 59.0 °F 100% 30.04 in 0.5 mi ENE 1.2 mph - N/A Fog Fog
7:58 AM 60.1 °F 60.1 °F 100% 30.06 in 0.5 mi Calm Calm - N/A Fog Fog
8:08 AM 60.8 °F 60.8 °F 100% 30.05 in 0.5 mi Calm Calm - N/A Fog Fog
8:18 AM 60.8 °F 60.8 °F 100% 30.04 in 0.2 mi Calm Calm - N/A Fog Fog
8:38 AM 60.8 °F 60.8 °F 100% 30.04 in 0.5 mi ESE 2.3 mph - N/A Fog Fog
8:43 AM 60.8 °F 60.8 °F 100% 30.04 in 0.5 mi SE 3.5 mph - N/A Fog Fog
8:58 AM 61.5 °F 61.5 °F 100% 30.05 in 0.5 mi SE 3.5 mph - N/A Fog Fog
9:08 AM 62.6 °F 62.6 °F 100% 30.02 in 0.5 mi Variable 3.5 mph - N/A Fog Fog
9:13 AM 62.6 °F 62.6 °F 100% 30.03 in 0.8 mi Variable 3.5 mph - N/A   Mist
9:18 AM 64.4 °F 64.4 °F 100% 30.03 in 1.0 mi SE 4.6 mph - N/A   Mist
9:23 AM 64.4 °F 64.4 °F 100% 30.02 in 1.0 mi SE 4.6 mph - N/A   Mist
9:28 AM 64.4 °F 64.4 °F 100% 30.02 in 1.2 mi SE 3.5 mph - N/A   Overcast
9:33 AM 64.4 °F 64.4 °F 100% 30.02 in 1.5 mi SE 4.6 mph - N/A   Overcast
9:38 AM 64.4 °F 64.4 °F 100% 30.01 in 1.8 mi ESE 3.5 mph - N/A   Overcast
9:48 AM 64.4 °F 64.4 °F 100% 30.01 in 1.5 mi SE 4.6 mph - N/A   Overcast
9:53 AM 64.4 °F 64.4 °F 100% 30.01 in 1.0 mi ESE 4.6 mph - N/A   Mist
9:58 AM 64.2 °F 64.2 °F 100% 30.02 in 1.0 mi SE 4.6 mph - N/A   Mist
10:03 AM 64.4 °F 64.4 °F 100% 30.01 in 1.0 mi SE 6.9 mph - N/A   Mist
10:08 AM 64.4 °F 64.4 °F 100% 30.01 in 0.8 mi SE 8.1 mph - N/A   Mist
10:13 AM 64.4 °F 64.4 °F 100% 30.00 in 0.5 mi SE 6.9 mph - N/A Fog Fog
10:33 AM 64.4 °F 64.4 °F 100% 30.00 in 0.5 mi SE 8.1 mph - N/A Fog Fog
10:38 AM 64.4 °F 64.4 °F 100% 30.00 in 0.2 mi SE 10.4 mph - N/A Fog Fog
10:40 AM 64.4 °F 64.4 °F 100% 29.99 in 0.2 mi SE 10.4 mph - N/A Fog Light Drizzle
10:45 AM 64.4 °F 64.4 °F 100% 29.99 in 0.5 mi SE 9.2 mph - N/A Fog Light Drizzle
10:50 AM 64.4 °F 64.4 °F 100% 29.99 in 0.5 mi SE 10.4 mph - N/A Fog Light Drizzle
10:55 AM 64.4 °F 64.4 °F 100% 29.98 in 1.2 mi SE 10.4 mph - N/A   Light Drizzle
10:57 AM 64.4 °F 64.4 °F 100% 29.98 in 2.0 mi SE 10.4 mph - N/A   Overcast
10:58 AM 63.7 °F 63.7 °F 100% 29.99 in 2.0 mi SE 10.4 mph - 0.00 in   Overcast
10:59 AM 64.4 °F 64.4 °F 100% 29.98 in 2.5 mi SE 10.4 mph - N/A   Drizzle
11:04 AM 64.4 °F 64.4 °F 100% 29.98 in 3.0 mi SE 11.5 mph - N/A   Light Drizzle
11:14 AM 64.4 °F 64.4 °F 100% 29.97 in 5.0 mi SE 12.7 mph - N/A Rain Light Rain
11:18 AM 64.4 °F 64.4 °F 100% 29.97 in 7.0 mi SE 13.8 mph - N/A   Overcast
11:53 AM 64.4 °F 64.4 °F 100% 29.95 in 2.0 mi SE 12.7 mph 18.4 mph N/A   Overcast
11:58 AM 64.8 °F 64.8 °F 100% 29.96 in 1.8 mi SSE 15.0 mph - 0.01 in   Overcast
12:08 PM 64.4 °F 64.4 °F 100% 29.95 in 2.5 mi SSE 16.1 mph 20.7 mph N/A   Overcast
12:13 PM 66.2 °F 66.2 °F 100% 29.94 in 3.0 mi SSE 13.8 mph 20.7 mph N/A   Overcast
12:28 PM 66.2 °F 66.2 °F 100% 29.94 in 5.0 mi SSE 12.7 mph - N/A   Overcast
12:58 PM 65.7 °F 65.7 °F 100% 29.93 in 5.0 mi SSE 12.7 mph - N/A   Overcast
1:38 PM 66.2 °F 66.2 °F 100% 29.89 in 7.0 mi SE 16.1 mph - N/A   Overcast
1:58 PM 66.6 °F 66.6 °F 100% 29.89 in 9.0 mi SE 18.4 mph - N/A   Overcast
2:13 PM 68.0 °F 68.0 °F 100% 29.87 in 10.0 mi SE 18.4 mph 24.2 mph N/A   Mostly Cloudy
2:18 PM 68.0 °F 68.0 °F 100% 29.87 in 10.0 mi SE 18.4 mph 25.3 mph N/A   Scattered Clouds
2:48 PM 68.0 °F 68.0 °F 100% 29.85 in 10.0 mi SE 20.7 mph - N/A   Mostly Cloudy
2:54 PM 68.0 °F 68.0 °F 100% 29.85 in 10.0 mi SE 19.6 mph - N/A   Mostly Cloudy
2:58 PM 68.5 °F 67.5 °F 96% 29.86 in 10.0 mi SE 17.3 mph - N/A   Mostly Cloudy
3:03 PM 69.8 °F 68.0 °F 94% 29.85 in 10.0 mi SE 16.1 mph 23.0 mph N/A   Mostly Cloudy
3:18 PM 71.6 °F 66.2 °F 83% 29.84 in 10.0 mi SSE 20.7 mph - N/A   Scattered Clouds
3:58 PM 70.5 °F 66.6 °F 87% 29.83 in 10.0 mi SSE 20.7 mph 24.2 mph 0.01 in   Partly Cloudy
4:58 PM 70.5 °F 66.2 °F 86% 29.81 in 10.0 mi SSE 16.1 mph 27.6 mph N/A   Mostly Cloudy
5:58 PM 70.3 °F 65.8 °F 86% 29.81 in 10.0 mi SSE 13.8 mph - N/A   Mostly Cloudy
6:38 PM 71.6 °F 66.2 °F 83% 29.80 in 10.0 mi SSE 17.3 mph 21.9 mph N/A   Mostly Cloudy
6:48 PM 71.6 °F 66.2 °F 83% 29.80 in 10.0 mi South 13.8 mph - N/A   Mostly Cloudy
6:58 PM 71.4 °F 65.8 °F 82% 29.80 in 10.0 mi SSE 12.7 mph - N/A   Overcast
7:58 PM 70.3 °F 65.7 °F 85% 29.81 in 10.0 mi South 20.7 mph 29.9 mph N/A   Mostly Cloudy
8:11 PM 71.6 °F 66.2 °F 83% 29.79 in 5.0 mi SW 16.1 mph 31.1 mph N/A   Haze
8:12 PM 71.6 °F 66.2 °F 83% 29.79 in 5.0 mi SW 16.1 mph 31.1 mph N/A Rain Light Rain
8:30 PM 71.6 °F 66.2 °F 83% 29.81 in 10.0 mi SSW 12.7 mph 21.9 mph N/A   Mostly Cloudy
8:43 PM 69.8 °F 66.2 °F 88% 29.80 in 10.0 mi SSW 10.4 mph 17.3 mph N/A   Light Drizzle
8:57 PM 69.8 °F 66.2 °F 88% 29.80 in 10.0 mi SW 11.5 mph - N/A   Mostly Cloudy
8:58 PM 70.2 °F 66.7 °F 89% 29.81 in 10.0 mi SW 10.4 mph - 0.01 in   Mostly Cloudy
9:03 PM 69.8 °F 66.2 °F 88% 29.80 in 10.0 mi SSW 10.4 mph - N/A   Overcast
9:13 PM 69.8 °F 66.2 °F 88% 29.80 in 10.0 mi SSW 13.8 mph 23.0 mph N/A   Overcast
9:42 PM 69.8 °F 64.4 °F 83% 29.80 in 10.0 mi West 16.1 mph 21.9 mph N/A   Scattered Clouds
9:47 PM 68.0 °F 64.4 °F 88% 29.83 in 3.0 mi WNW 16.1 mph 23.0 mph N/A Rain Heavy Rain
9:49 PM 68.0 °F 62.6 °F 83% 29.83 in 2.5 mi WNW 16.1 mph 23.0 mph N/A Rain Rain
9:50 PM 68.0 °F 62.6 °F 83% 29.83 in 2.5 mi West 16.1 mph 33.4 mph N/A Rain Rain
9:54 PM 64.4 °F 62.6 °F 94% 29.83 in 5.0 mi WNW 16.1 mph 33.4 mph N/A Rain Light Rain
9:58 PM 64.4 °F 61.5 °F 90% 29.84 in 9.0 mi WNW 15.0 mph 24.2 mph 0.04 in Rain Light Rain
10:33 PM 60.8 °F 57.2 °F 88% 29.86 in 10.0 mi West 10.4 mph - N/A   Light Drizzle
10:36 PM 60.8 °F 57.2 °F 88% 29.86 in 10.0 mi West 8.1 mph - N/A   Overcast
10:58 PM 61.0 °F 57.6 °F 88% 29.88 in 10.0 mi West 8.1 mph - 0.00 in   Overcast
11:58 PM 60.3 °F 56.5 °F 87% 29.88 in 10.0 mi West 9.2 mph - N/A   Overcast